User: anonymous   Login
Location: Avully
(45.9633°N, 6.0228°E)
Time: 19:33:05
(UTC+00:00)
Language:

Cosmos 2098 Rocket - Orbit

View from above orbital plane
View from above orbital plane
View from above satellite
View from above satellite

Ground track
Ground track

The orbit data is extracted from the following two-line orbital elements,

1 20775U 90078B   24207.02699594  .00025669  00000-0  10040-2 0  9999
2 20775  82.9126  53.7525 0464305 170.5676 190.4647 14.61984664721855
Epoch (UTC): 25 July 2024 00:38:52
Eccentricity: 0.0464305
inclination: 82.9126°
perigee height: 359 km
apogee height: 1015 km
right ascension of ascending node: 53.7525°
argument of perigee: 170.5676°
revolutions per day: 14.61984664
mean anomaly at epoch: 190.4647°
orbit number at epoch: 72185

The dashed part of the orbit path shows where the satellite is in the earth's shadow,  

DLR